Regional Weather Roundup
Issued by NWS

Home | Current Version | Previous Version | Graphics & Text | Print | Product List | Glossary On
Versions: 1 2 3 4 5 6 7 8 9 10 11 12 13 14 15 16 17 18 19 20 21 22 23 24 25 26 27 28 29 30 31 32 33 34 35 36 37 38 39 40 41 42 43 44 45 46 47 48 49 50
817
ASUS43 KBIS 250910
RWRND

NORTH DAKOTA REGIONAL WEATHER ROUNDUP
NATIONAL WEATHER SERVICE BISMARCK ND
400 AM CDT MON JUL 25 2016

NOTE: "FAIR" INDICATES FEW OR NO CLOUDS BELOW 12,000 FEET WITH NO
SIGNIFICANT WEATHER AND/OR OBSTRUCTIONS TO VISIBILITY.


NDZ001>003-009>011-017-251000-
NORTHWEST NORTH DAKOTA

CITY           SKY/WX    TMP DP  RH WIND       PRES   REMARKS
WILLISTON      CLEAR     62  56  80 N6        29.98F
MINOT          CLEAR     63  59  87 CALM      30.01F
MINOT AFB      CLEAR     57  55  94 SW3       30.00F
$$

NDZ018>021-031>035-040>046-251000-
SOUTHWEST NORTH DAKOTA

CITY           SKY/WX    TMP DP  RH WIND       PRES   REMARKS
BISMARCK       CLEAR     61  59  93 NE6       30.03S
DICKINSON      CLEAR     57  51  80 SE9       30.00F
GARRISON         N/A     59  57  93 E5        30.02F
HETTINGER ARPT CLEAR     64  49  57 SE6       30.05F
$$

NDZ004>008-012>016-024-026-027-054-251000-
NORTHEAST NORTH DAKOTA

CITY           SKY/WX    TMP DP  RH WIND       PRES   REMARKS
GRAND FORKS    CLEAR     61  57  87 W5        29.98R
GRND FRKS AFB  CLEAR     62  59  88 W8        29.99R
DEVILS LAKE    CLEAR     64  60  87 SW6       30.03
$$

NDZ022-023-025-028>030-036>039-047>053-251000-
SOUTHEAST NORTH DAKOTA

CITY           SKY/WX    TMP DP  RH WIND       PRES   REMARKS
FARGO          CLEAR     62  57  83 SW3       30.00S
JAMESTOWN      CLEAR     60  58  92 CALM      30.03S
$$





USA.gov is the U.S. government's official web portal to all federal, state and local government web resources and services.